Location: Fort Worth, Tx
(32.7431°N, 97.3695°W)
Time: 17:40:21
(UTC-04:00)

Transit 4A - Pass Details

Date: 02 March 2024
Orbit: 871 x 972 km, 66.8° (Epoch: 21 April)

Event Time Altitude Azimuth Distance (km) Brightness Sun altitude
Rises 23:41:02 0° 174° (S) 3,620 - -51.8°
Reaches altitude 10° 23:43:58 10° 163° (SSE) 2,665 - -52.3°
Maximum altitude 23:49:05 27° 107° (ESE) 1,700 - -53.1°
Drops below altitude 10° 23:54:06 10° 51° (NE) 2,621 - -53.9°
Sets 23:56:56 0° 40° (NE) 3,549 - -54.4°
